Regional Weather Roundup
Issued by NWS

Home | Current Version | Previous Version | Text Only | Print | Product List | Glossary On
Versions: 1 2 3 4 5 6 7 8 9 10 11 12 13 14 15 16 17 18 19 20 21 22 23 24 25 26 27 28 29 30 31 32 33 34 35 36 37 38 39 40 41 42 43 44 45 46 47 48 49 50
000
ASUS43 KMKX 061300
RWRWI

WISCONSIN REGIONAL WEATHER ROUNDUP
NATIONAL WEATHER SERVICE MILWAUKEE/SULLIVAN WI
700 AM CST TUE DEC 06 2016

NOTE: "FAIR" INDICATES FEW OR NO CLOUDS BELOW 12,000 FEET WITH NO
SIGNIFICANT WEATHER AND/OR OBSTRUCTIONS TO VISIBILITY.

WIZ001-002-006>008-014>016-023>028-061400-
NORTHWEST WISCONSIN

CITY           SKY/WX    TMP DP  RH WIND       PRES   REMARKS
SUPERIOR ARPT  CLOUDY    32  27  79 SW15G21   29.60R WCI  22
ASHLAND        CLOUDY    34  31  88 MISG      29.61S
HAYWARD        LGT SNOW  32  29  88 SW13G23   29.62S FOG     WCI  22
SIREN          FLURRIES  30  24  77 SW14G21   29.65S WCI  19
CUMBERLAND     FLURRIES  28  27  93 SW14      29.65F WCI  17
RICE LAKE      LGT SNOW  31  29  94 SW9       29.68S WCI  23
CHETEK         LGT SNOW  31  30  96 SW6       29.68S WCI  25
LADYSMITH      LGT SNOW  32  32  98 S8        29.68S WCI  25
EAU CLAIRE     LGT SNOW  32  30  92 W8        29.70S FOG     WCI  25
MENOMONIE      LGT SNOW  32  30  94 SW8       29.71R WCI  24
NEW RICHMOND   CLOUDY    29  24  83 SW20      29.69S WCI  16
OSCEOLA        CLOUDY    29  22  75 SW17G25   29.72S WCI  17
$$

WIZ003>005-009-010-017-018-061400-
NORTH CENTRAL WISCONSIN

CITY           SKY/WX    TMP DP  RH WIND       PRES   REMARKS
MANITOWISH WTR CLOUDY    31  31 100 S14       29.65F WCI  20
ARBOR VITAE    CLOUDY    32  29  89 S12G17    29.68F WCI  23
WOODRUFF       CLOUDY    32  29  89 S12G17    29.68F WCI  23
RHINELANDER    CLOUDY    31  28  89 S9        29.70S WCI  23
EAGLE RIVER    CLOUDY    31  26  84 S8        29.69F WCI  23
LAND O LAKES   CLOUDY    32  27  83 S10G21    29.69F WCI  24
PHILLIPS       LGT SNOW  31  30  99 S8        29.65F VSB 1   WCI  23
TOMAHAWK       CLOUDY    30  28  91 S3        29.71S FOG
MEDFORD        CLOUDY    30  28  94 S12G17    29.69F FOG     WCI  20
MERRILL        CLOUDY    31  29  94 S6        29.73F WCI  25
$$

WIZ029-030-035-036-043>047-061400-
CENTRAL WISCONSIN

CITY           SKY/WX    TMP DP  RH WIND       PRES   REMARKS
WAUSAU         CLOUDY    30  28  92 S10       29.73F WCI  21
MOSINEE        CLOUDY    30  30 100 S12       29.75F FOG     WCI  21
MARSHFIELD     CLOUDY    30  28  92 S14       29.72S FOG     WCI  19
STEVENS POINT  CLOUDY    29  28  98 S10       29.77S FOG     WCI  20
WAUPACA        CLOUDY    33  31  90 S6        29.80F FOG     WCI  28
WAUTOMA        CLOUDY    31  29  92 S7        29.80S FOG     WCI  24
WISC RAPIDS    CLOUDY    31  30  96 S7        29.77S WCI  24
CAMP DOUGLAS   CLOUDY    32  28  86 S8        29.77S WCI  25
$$

WIZ011>013-019>022-031-037>040-048>050-061400-
NORTHEAST WISCONSIN

CITY           SKY/WX    TMP DP  RH WIND       PRES   REMARKS
ANTIGO         CLOUDY    29  28  96 S15       29.74S FOG     WCI  18
SHAWANO        CLOUDY    37  34  89 S3        29.79F
OCONTO         CLOUDY    38  35  87 SE9       29.80F WCI  32
STURGEON BAY   CLOUDY    37  34  89 SE13      29.81  WCI  29
GREEN BAY      CLOUDY    38  35  89 S9        29.79F WCI  31
MANITOWOC      NOT AVBL
APPLETON       CLOUDY    34  34 100 S7        29.78F WCI  28
CLINTONVILLE   CLOUDY    32  32 100 S13       29.79F FOG     WCI  22
OSHKOSH        CLOUDY    33  31  92 W7        29.81S FOG     WCI  27
$$

WIZ032>034-041-042-053>061-061400-
SOUTHWEST WISCONSIN

CITY           SKY/WX    TMP DP  RH WIND       PRES   REMARKS
LA CROSSE      LGT SNOW  34  32  92 S9        29.75F FOG     WCI  27
SPARTA         CLOUDY    32  30  94 S9        29.76F FOG     WCI  24
VIROQUA        CLOUDY    30  30 100 S9        29.75F VSB 3/4 WCI  22
BOSCOBEL       CLOUDY    33  31  92 SW3       29.80F FOG
PRAIRIE DU CHI CLOUDY    32  31  96 E3        29.79F FOG
PLATTEVILLE    CLOUDY    32  32 100 SE7       29.79F VSB 1/2 WCI  26
$$

WIZ056-057-062-063-064-067-068-061400-
SOUTH CENTRAL WISCONSIN

CITY           SKY/WX    TMP DP  RH WIND       PRES   REMARKS
REEDSBURG      CLOUDY    31  31 100 S3        29.78F
BARABOO/DELLS  CLOUDY    31  30  96 S8        29.79F WCI  23
LONE ROCK      NOT AVBL
MINERAL POINT  FOG       32  32 100 SE6       29.78F VSB 1/2 WCI  26
MADISON        FRZ DRZL  32  30  92 S6        29.81S FOG     WCI  26
MIDDLETON      NOT AVBL
WATERTOWN      CLOUDY    32  32 100 W3        29.81R FOG
MONROE         FOG       32  32 100 S3        29.80S VSB 1/4
JANESVILLE     CLOUDY    34  34 100 CALM      29.81S FOG
$$

WIZ051-052-058>065-066-070>072-061400-
SOUTHEAST WISCONSIN

CITY           SKY/WX    TMP DP  RH WIND       PRES   REMARKS
MILWAUKEE      CLOUDY    39  33  79 SE6       29.80F WCI  35
WAUKESHA       MOCLDY    32  32 100 SE7       29.80F FOG     WCI  26
MILWAUKEE/TIMM CLEAR     34  30  86 CALM      29.81F FOG
RACINE         PTCLDY    37  33  85 SE5       29.81F WCI  33
BURLINGTON     CLOUDY    32  32 100 CALM      29.80S FOG
KENOSHA        PTCLDY    32  30  92 CALM      29.80S FOG
FOND DU LAC    CLOUDY    35  30  82 SW7       29.81R WCI  29
SHEBOYGAN      CLOUDY    35  32  88 CALM      29.80F FOG
WEST BEND      CLOUDY    32  32 100 CALM      29.79F FOG
JUNEAU         FOG       31  31 100 SW5       29.82R VSB<1/4 WCI  26
$$

LSZ147-162-061400-
LAKE SUPERIOR

STATION/POSITION TIME  TEMP    WIND        PRES    WAVE
                       AIR SEA DIR/SP/G            HT/PER
                 (UTC) (F)     (DEG/KT/KT) (MB)    (FT/S)
DEVILS ISLAND    1200   36     170/ 12/ 17 1003.4F
PORT WING        1130   38     190/ 10/ 13 1002.4F
SAXON HARBOR     1130   36     170/  5/ 13 1003.7F
$$

LMZ867-665-643>646-061400-
LAKE MICHIGAN

STATION/POSITION TIME  TEMP    WIND        PRES    WAVE
                       AIR SEA DIR/SP/G            HT/PER
                 (UTC) (F)     (DEG/KT/KT) (MB)    (FT/S)
CHAMBERS ISLAND  1240   39     150/  6/ 14 1009.5F
NORTHPORT PIER   1240   40     150/ 13/ 17 1010.5S
SISTER BAY       1138   39     190/ 16/ 20   N/A
ALGOMA LAKESHORE 1151          200/ 21/ 25   N/A
KEWAUNEE LAKESHO 1230   40     170/ 18/ 20 1009.8F
SHEBOYGAN LAKESH 1200   40     150/ 19/ 21 1010.2F
PORT WASHINGTON  1140   40     160/ 11/ 13 1011.2F
MILWAUKEE LAKESH 1230   40     130/ 12/ 13   N/A
KENOSHA   LAKESH 1200   40     110/  9/ 11 1009.5
$$

TC  - TEMPERATURE IN CELSIUS
VSB - VISIBILITY IN STATUTE MILES
WCI - WIND CHILL INDEX
HX  - HEAT INDEX





USA.gov is the U.S. government's official web portal to all federal, state and local government web resources and services.